ATLAS D DEB, 2329

Orbit data source: Space-Track

ATLAS D DEB, 2329 is space debris in LEO originally from a launch on Thu, 14 Jul 1966 UTC launched from the Air Force Western Test Range (AFWTR). Debris objects in space refer to the collection of defunct objects orbiting the Earth. Examples of debris include non-operational satellites, rocket bodies, and fragments generated from explosions, collisions, or faulty payload assembly.

Loading next visibility...
Identifier
2329, 1966-063D
Orbit
LEO
Country
Flag of USUS
Related business
Manufacturer
Goodyear
Mission
Spacecraft
Bus & Motor
CONTAINER, Unknown motor
Mass
2 kg wet, 2 kg dry
Launch date (UTC)
1966-07-14 (60 years ago)
Launch vehicle
Unknown
Launch site
Air Force Western Test Range (AFWTR)
Object type
Payload
Rocket body
Debris
Shape & HBR
HALF CYL, 1.1 m
Radar Cross Section
Medium (>0.1 m² and <1 m²)

Expand to show TLE details & history
Last TLE update: 21 hours ago

TLE from 21 hours ago
0 ATLAS D DEB
1 02329U 66063D   26264.37288597  .00001125  00000-0  65476-3 0  9996
2 02329 144.2863 223.1064 0023654 194.3069 334.1098 13.92734989 35591
Epoch: 2026-09-21T08:56Z
TLE epoch observation values (Epoch: 2026-09-21T08:56:57.347Z)
Latitude
6.79775°
Longitude
-81.89277°
Altitude
901.961 km
Speed
7.411 km/s
True Right ascension
03h 30m 23s
True Declination
6° 45' 30"
Sunlit
Object was in full shadow at epoch
Visualization orbit readout
Latitude
Unknown
Longitude
Unknown
Altitude
Unknown
Speed
Unknown
Apparent Right ascension
Unknown
Apparent Declination
Unknown
Sunlit
N/A
Visualization observer readout
Local Sidereal Time
23:23:43
Azimuth
Unknown
Elevation
Unknown
Doppler factor
Unknown
Orbital elements
Apogee altitude
939.286 km
Perigee altitude
904.75 km
Semi-major axis
7,300.155 km
Eccentricity
0.00237
Inclination
144.2863°
RAAN
223.1064°
Arg. of periapsis
194.3069°
True anomaly
333.99113°
Mean anomaly
334.1098°
Eccentric anomaly
334.0505°
Mean motion
3.47973 °/min
Orbital period
103.46 mins
BSTAR
0.00065476
Loading maneuver chart data...
Computing Atmospheric mass density...
Loading historical data...
Loading historical data...
Loading historical data...
Loading historical data...
Loading historical data...
Loading historical data...
Loading historical data...

Documentation

Showing up to 5 results
|